Wind_Speed
42 38 40 41 39 38 34 29 23 25 28 32 35 35 34 35 34 34 36 38 38 41 41 40 42 45 49 51 54 59 66 71 77 67 70 65 68 68 68 67 64 61 60 52
37 37 33 28 24 20 18 19 24 31 33 33 31 29 33 35 37 34 36 35 35 37 36 35 35 38 42 42 42 44 51 63 73 65 65 69 69 71 68 65 61 61 56 49
28 26 25 26 23 23 24 26 28 30 31 30 28 27 32 36 36 35 34 32 33 34 34 32 32 35 38 36 35 34 42 59 67 69 64 71 70 71 68 69 64 59 57 41
25 27 29 30 29 29 28 27 27 32 34 34 33 33 35 35 35 33 30 30 30 32 31 32 34 36 34 32 27 31 36 53 54 63 69 69 69 70 72 71 66 59 51 33
28 29 27 27 30 30 28 28 30 30 30 32 33 33 34 35 34 32 27 26 25 29 33 29 30 34 27 21 24 29 26 53 45 55 65 64 64 69 71 71 65 60 45 39
29 24 27 29 28 26 22 25 27 28 28 29 28 30 31 31 31 29 25 22 23 29 30 28 26 27 24 24 24 23 35 57 30 47 62 64 67 68 69 68 64 56 43 44
27 23 29 29 24 22 25 27 28 28 28 29 28 28 29 28 28 28 22 19 23 23 26 27 32 28 26 26 22 15 32 31 31 53 66 63 67 65 70 66 62 56 45 48
26 25 25 24 24 24 26 28 28 29 31 34 32 30 29 27 26 25 19 14 14 13 15 18 21 19 19 19 19 23 40 26 41 51 68 62 60 61 67 65 59 54 48 53
26 22 23 22 25 23 26 28 31 34 37 41 43 41 35 26 23 22 14 11 16 24 22 18 9 2 5 21 24 25 20 36 41 48 67 58 58 61 63 64 58 52 52 57
24 21 21 22 22 21 21 27 30 32 38 43 46 51 47 29 20 26 22 22 28 25 16 18 21 21 11 18 21 20 29 40 38 51 65 54 55 58 57 59 57 53 55 55
25 21 19 19 19 20 22 27 29 34 39 42 46 51 57 37 18 19 16 23 23 18 21 24 29 24 20 22 19 15 38 47 43 45 53 58 55 55 53 52 56 53 54 54
27 20 19 16 19 18 23 28 30 34 39 42 45 51 56 55 31 23 17 17 26 28 30 31 33 28 23 22 18 19 30 45 47 49 48 55 56 50 55 55 50 51 54 57
24 20 23 13 18 22 22 24 28 31 38 41 42 47 50 54 46 31 22 20 27 24 23 26 27 27 28 22 18 20 35 37 41 39 51 45 56 42 43 50 47 50 54 57
21 20 21 18 18 21 22 22 25 28 33 37 39 44 46 46 48 33 27 25 14 19 20 15 23 24 22 17 15 20 35 28 44 45 44 46 51 47 45 46 52 46 53 53
22 20 21 18 18 21 23 22 22 27 31 35 34 40 41 41 41 39 38 32 23 26 16 14 12 16 19 14 9 14 32 27 26 50 43 46 44 54 50 49 49 50 50 54
23 22 21 18 20 19 20 22 22 24 25 32 29 39 38 38 38 39 39 37 33 32 32 27 21 11 8 10 13 6 21 30 44 46 44 38 46 52 42 45 50 52 53 55
23 21 25 19 20 19 21 19 20 22 23 23 28 32 33 34 35 33 34 36 33 31 30 30 27 21 14 7 5 3 4 2 9 42 43 45 50 43 56 51 53 54 58 58
20 19 21 22 16 18 19 20 22 23 23 23 23 23 26 26 24 28 28 29 28 27 29 27 25 15 9 7 3 5 9 9 8 15 43 46 41 49 49 50 53 62 49 58
20 18 18 18 18 19 20 20 21 21 24 26 26 24 24 22 22 23 24 23 24 25 23 22 23 22 17 12 11 5 4 13 21 18 24 27 44 52 53 52 51 58 60 55
22 20 20 19 20 18 19 21 19 19 20 22 23 24 24 24 23 22 23 22 21 21 22 23 21 22 21 18 13 4 3 2 5 15 26 32 24 36 55 53 54 52 55 65
23 22 21 21 22 20 17 16 14 16 17 19 21 22 22 22 23 22 22 22 21 21 20 21 21 20 21 20 17 13 11 5 1 4 8 17 27 41 40 45 53 56 61 56
23 22 21 21 20 18 17 17 17 18 18 18 20 21 21 22 22 21 20 21 22 24 24 23 21 21 22 22 22 21 18 13 9 6 5 6 14 25 37 50 58 60 61 59
24 24 23 21 18 18 17 17 17 18 19 19 21 21 19 19 20 19 18 20 22 22 22 22 23 22 19 20 23 23 24 25 22 19 15 10 9 14 17 27 36 50 64 65
25 25 23 22 21 18 18 18 18 19 20 21 20 18 19 20 21 21 20 22 22 23 22 23 23 22 21 18 18 21 22 22 22 22 20 20 19 18 22 20 28 33 38 44
23 25 26 26 23 20 19 19 19 19 19 19 18 17 18 20 21 23 24 24 24 25 26 26 26 25 24 23 20 20 20 21 20 20 20 22 21 22 19 17 15 24 30 28
21 20 22 24 24 21 19 18 20 21 21 18 16 16 17 20 23 24 27 29 29 28 28 28 27 27 27 25 24 23 19 19 20 21 20 18 21 22 23 23 18 16 24 24
22 21 19 24 31 26 21 21 21 22 23 23 21 19 17 19 21 23 26 30 34 33 29 27 25 24 24 25 24 22 20 18 19 19 20 20 19 20 22 19 18 20 20 22
Wind_Direction
325 325 322 315 314 311 308 309 313 309 307 305 303 303 299 298 299 293 285 279 275 270 270 271 268 267 269 272 273 265 254 241 232 224 218 214 215 214 215 218 218 221 228 224
328 329 332 337 345 341 326 314 308 306 310 310 307 304 303 299 300 295 288 281 272 267 272 279 276 272 272 283 271 254 240 226 229 217 215 214 213 212 213 216 222 224 227 220
344 352 352 348 344 336 328 322 318 318 318 316 314 305 302 301 299 296 291 282 276 271 275 281 283 281 278 280 263 247 238 220 221 214 209 209 211 210 209 214 219 220 224 217
346 346 346 340 336 338 339 332 327 323 325 326 323 319 315 310 306 302 294 281 280 275 281 283 283 278 273 278 252 241 222 215 216 209 204 205 208 206 209 213 216 219 220 204
345 347 348 345 341 337 341 339 339 336 337 329 327 325 320 313 311 312 304 292 284 285 279 279 275 284 269 264 238 240 237 204 215 206 201 200 206 206 209 213 215 218 210 184
346 350 348 352 347 350 359 360 352 345 339 331 329 327 322 318 317 318 312 304 287 282 280 274 280 277 254 261 256 246 212 202 214 189 191 197 202 205 208 210 213 215 206 185
350 350 351 359 3 16 10 4 4 3 2 354 349 343 336 330 329 322 321 305 291 277 274 284 290 280 252 241 253 223 200 200 197 181 183 195 200 204 206 209 211 211 198 188
352 354 3 16 16 18 19 20 29 28 23 21 12 0 351 341 337 333 329 336 327 325 321 302 320 279 251 228 195 164 191 191 177 181 179 193 196 202 206 207 208 206 192 184
352 3 9 15 13 24 38 38 35 30 28 26 23 18 8 351 350 358 5 15 346 344 344 326 312 42 64 121 136 160 173 176 171 179 186 192 196 197 205 205 212 204 190 185
349 356 2 13 14 23 27 28 29 24 26 24 24 25 23 3 5 12 9 14 7 17 43 67 76 63 111 128 151 145 177 182 150 175 188 190 196 195 201 207 208 203 194 189
351 352 356 11 9 10 16 20 25 24 24 21 23 24 28 26 8 14 18 26 22 44 75 87 90 99 110 119 139 159 163 173 180 188 190 197 200 200 204 205 209 204 197 191
350 347 347 20 16 19 25 22 19 19 21 20 23 24 28 34 28 43 44 33 45 64 81 87 96 102 116 120 135 164 168 167 180 190 186 195 197 200 206 208 207 204 202 194
349 347 351 22 11 6 9 15 15 21 21 19 20 26 29 33 47 65 52 45 42 51 83 91 95 110 116 112 116 162 167 169 186 190 197 199 199 195 204 208 206 203 205 203
347 349 351 357 357 359 3 12 15 18 20 20 22 24 29 34 42 59 69 67 64 49 54 62 63 88 117 98 121 135 178 182 179 193 193 200 202 202 207 210 211 207 208 207
344 345 345 338 339 344 353 360 5 4 17 18 21 20 23 27 35 41 41 43 53 49 53 66 70 78 85 71 87 152 179 197 156 176 191 197 201 210 216 211 208 208 214 211
351 348 348 334 327 337 350 357 1 5 15 15 5 6 16 17 22 23 27 31 33 35 25 32 38 27 59 76 78 157 179 200 216 215 201 202 206 211 210 210 208 207 211 212
351 348 356 352 338 359 358 358 358 0 4 359 346 360 8 14 11 18 17 15 16 23 28 27 18 18 12 330 293 120 60 91 173 191 204 206 207 205 220 219 213 205 209 215
353 355 359 -0 0 3 357 357 357 357 3 3 3 3 1 11 8 8 11 11 11 10 14 21 28 12 356 2 84 184 221 217 202 208 210 208 218 230 233 225 217 219 222 216
356 348 350 348 347 356 0 12 15 15 18 17 17 10 11 10 10 7 6 10 6 6 5 7 12 17 29 35 43 59 122 183 203 220 214 217 228 228 231 230 230 230 230 221
11 16 13 10 13 14 16 14 9 14 14 16 17 16 14 16 18 18 18 13 10 1 358 360 359 2 8 14 38 56 20 26 152 197 210 217 240 243 233 228 231 234 233 234
2 358 0 2 1 358 357 346 352 360 0 5 5 5 6 9 13 16 17 18 14 10 10 2 356 352 350 351 351 359 18 28 140 184 202 210 220 223 234 240 241 244 240 239
351 349 351 352 350 348 345 344 344 345 352 356 355 352 355 1 4 5 11 13 12 14 8 6 6 360 349 341 336 333 329 324 330 316 277 242 227 232 238 241 240 244 245 248
349 349 352 350 349 347 343 345 348 351 353 355 352 352 353 355 354 352 354 354 357 355 355 356 354 355 352 340 334 329 322 319 316 310 309 291 295 287 274 259 248 247 246 247
349 353 357 356 356 352 350 350 351 350 348 349 349 350 351 350 350 350 346 343 342 340 339 338 338 333 330 338 327 316 318 317 311 303 298 290 282 273 264 266 249 246 248 249
352 1 360 358 358 359 356 356 355 352 351 352 349 348 346 347 349 346 342 338 335 329 323 320 319 319 316 313 317 314 301 297 302 303 296 287 283 273 273 274 269 234 232 237
1 1 359 353 356 356 356 353 351 351 348 343 340 342 350 353 349 345 339 332 327 322 315 312 309 306 304 304 303 303 296 287 289 292 297 303 293 285 287 290 283 268 240 242
357 350 355 354 357 350 352 348 346 345 343 335 328 327 333 334 339 340 339 334 325 322 317 310 304 299 298 299 301 298 291 287 281 281 281 280 284 292 287 283 284 286 277 264
Height
5728 5722 5716 5708 5702 5697 5692 5690 5686 5681 5678 5676 5672 5666 5660 5657 5653 5650 5646 5643 5640 5637 5637 5636 5637 5638 5633 5634 5633 5634 5640 5643 5655 5678 5697 5712 5718 5728 5737 5741 5752 5759 5767 5781
5722 5714 5707 5700 5694 5690 5688 5684 5680 5675 5671 5666 5662 5657 5652 5646 5642 5638 5633 5629 5626 5624 5624 5623 5622 5622 5620 5617 5615 5615 5619 5625 5637 5667 5684 5695 5701 5715 5727 5738 5746 5751 5762 5775
5717 5711 5705 5699 5693 5687 5683 5680 5674 5667 5662 5657 5654 5651 5644 5637 5630 5625 5620 5616 5613 5612 5611 5610 5609 5607 5603 5603 5600 5602 5603 5610 5622 5647 5669 5676 5690 5704 5717 5723 5730 5745 5752 5773
5715 5710 5704 5697 5689 5683 5679 5674 5669 5660 5654 5648 5642 5638 5633 5626 5620 5614 5609 5604 5601 5600 5600 5597 5594 5593 5590 5588 5588 5589 5591 5597 5609 5629 5648 5663 5679 5694 5704 5712 5726 5735 5751 5772
5713 5707 5701 5695 5687 5681 5676 5669 5663 5656 5649 5641 5635 5629 5624 5617 5609 5605 5599 5594 5591 5588 5587 5585 5584 5580 5579 5578 5579 5579 5581 5595 5603 5620 5640 5659 5674 5686 5695 5707 5721 5730 5747 5763
5711 5706 5700 5693 5686 5679 5674 5669 5661 5654 5646 5639 5633 5625 5617 5610 5601 5597 5590 5585 5583 5581 5578 5575 5574 5571 5570 5570 5571 5571 5576 5589 5600 5617 5636 5652 5663 5675 5688 5700 5713 5726 5743 5758
5710 5705 5699 5692 5685 5679 5673 5666 5660 5653 5648 5640 5632 5622 5613 5604 5595 5588 5583 5579 5576 5574 5569 5567 5563 5560 5560 5561 5564 5565 5574 5590 5598 5610 5627 5642 5656 5669 5681 5693 5705 5718 5736 5746
5711 5705 5699 5693 5687 5680 5674 5667 5661 5655 5649 5640 5630 5620 5610 5599 5591 5585 5579 5577 5572 5570 5564 5558 5552 5550 5552 5555 5556 5563 5578 5588 5598 5610 5623 5638 5650 5664 5674 5686 5700 5713 5730 5740
5711 5706 5700 5694 5689 5683 5676 5671 5663 5656 5651 5641 5632 5620 5608 5598 5589 5582 5579 5576 5573 5567 5560 5553 5550 5550 5550 5553 5562 5571 5578 5585 5597 5609 5622 5633 5646 5660 5670 5685 5697 5710 5725 5735
5711 5707 5701 5696 5691 5686 5680 5673 5666 5660 5651 5642 5632 5621 5609 5596 5589 5584 5580 5579 5572 5566 5560 5556 5553 5551 5554 5561 5570 5577 5583 5590 5593 5609 5621 5634 5645 5657 5671 5683 5695 5707 5719 5730
5711 5707 5702 5697 5693 5688 5681 5676 5668 5661 5652 5645 5634 5624 5611 5600 5591 5588 5585 5583 5577 5573 5567 5563 5560 5562 5567 5571 5576 5581 5587 5596 5602 5613 5624 5636 5645 5657 5669 5679 5688 5704 5715 5725
5711 5706 5702 5698 5694 5689 5682 5676 5670 5663 5655 5648 5639 5628 5616 5607 5597 5593 5592 5591 5586 5582 5579 5576 5574 5576 5578 5581 5583 5586 5592 5596 5603 5613 5623 5633 5643 5657 5666 5674 5687 5701 5709 5719
5710 5706 5701 5697 5694 5690 5683 5677 5671 5665 5658 5651 5643 5634 5625 5616 5608 5605 5603 5601 5598 5594 5591 5589 5588 5587 5589 5589 5590 5592 5595 5601 5608 5616 5625 5633 5645 5654 5662 5673 5686 5697 5705 5714
5710 5706 5701 5697 5694 5690 5685 5679 5674 5668 5661 5655 5649 5640 5633 5627 5622 5618 5613 5609 5607 5604 5603 5599 5596 5596 5596 5596 5597 5599 5603 5605 5607 5615 5626 5637 5646 5654 5662 5671 5682 5693 5700 5709
5710 5706 5702 5698 5694 5690 5685 5680 5675 5669 5665 5659 5654 5648 5641 5635 5630 5625 5622 5618 5614 5610 5608 5604 5602 5601 5602 5603 5605 5606 5607 5609 5610 5621 5628 5637 5646 5653 5661 5669 5678 5690 5697 5704
5709 5705 5701 5698 5694 5690 5686 5681 5677 5672 5666 5661 5655 5651 5646 5640 5634 5628 5625 5623 5619 5615 5610 5607 5606 5605 5605 5606 5608 5611 5615 5615 5616 5622 5632 5639 5645 5650 5658 5666 5675 5684 5690 5697
5709 5705 5701 5696 5693 5690 5687 5684 5679 5673 5668 5664 5658 5654 5650 5644 5638 5635 5631 5625 5621 5620 5617 5613 5608 5606 5608 5608 5609 5609 5612 5613 5618 5621 5630 5637 5642 5645 5653 5662 5671 5678 5684 5690
5709 5705 5701 5697 5694 5691 5688 5683 5679 5674 5670 5666 5661 5658 5654 5650 5646 5640 5635 5631 5627 5624 5620 5619 5617 5615 5611 5611 5609 5610 5612 5616 5620 5624 5628 5632 5636 5641 5649 5656 5664 5670 5671 5682
5710 5706 5702 5699 5695 5691 5688 5684 5679 5675 5672 5667 5662 5660 5656 5653 5649 5644 5640 5636 5632 5628 5626 5623 5620 5618 5615 5611 5610 5610 5611 5614 5616 5621 5625 5628 5630 5634 5642 5648 5653 5662 5667 5671
5711 5708 5704 5700 5695 5692 5689 5685 5682 5678 5674 5670 5666 5662 5658 5655 5650 5647 5643 5639 5635 5631 5628 5624 5621 5617 5616 5616 5614 5613 5612 5611 5612 5615 5618 5623 5625 5627 5632 5638 5644 5649 5654 5661
5713 5708 5704 5700 5696 5693 5690 5687 5684 5680 5676 5672 5668 5664 5661 5657 5653 5650 5646 5642 5639 5635 5632 5627 5624 5620 5617 5615 5615 5614 5613 5613 5614 5614 5613 5614 5617 5620 5622 5626 5631 5637 5641 5647
5713 5709 5704 5700 5696 5693 5691 5687 5683 5680 5677 5673 5669 5666 5661 5657 5654 5651 5648 5644 5641 5636 5633 5629 5625 5622 5617 5613 5611 5609 5610 5612 5612 5611 5612 5612 5611 5611 5613 5615 5617 5623 5629 5633
5712 5708 5703 5700 5697 5693 5689 5686 5683 5679 5676 5673 5669 5665 5661 5657 5654 5651 5648 5644 5641 5637 5634 5630 5626 5623 5620 5614 5610 5607 5604 5602 5601 5602 5603 5603 5604 5604 5606 5608 5606 5607 5611 5617
5711 5707 5703 5699 5695 5692 5688 5685 5681 5678 5674 5671 5667 5663 5659 5656 5653 5650 5646 5644 5640 5637 5633 5629 5626 5622 5619 5616 5612 5607 5604 5601 5600 5599 5599 5599 5600 5601 5603 5603 5601 5600 5601 5601
5711 5706 5702 5698 5695 5691 5687 5683 5679 5676 5672 5668 5666 5662 5659 5655 5652 5648 5645 5641 5637 5633 5629 5625 5621 5618 5615 5613 5610 5606 5602 5599 5597 5595 5594 5593 5594 5594 5594 5595 5593 5593 5596 5597
5711 5706 5703 5699 5695 5690 5685 5682 5678 5675 5671 5668 5665 5661 5657 5654 5650 5646 5643 5639 5635 5630 5624 5619 5616 5612 5608 5606 5604 5602 5599 5595 5592 5589 5587 5585 5584 5584 5584 5583 5584 5584 5586 5587
5710 5706 5703 5698 5692 5689 5686 5682 5678 5675 5671 5667 5663 5659 5655 5651 5647 5643 5637 5633 5628 5623 5618 5614 5610 5606 5602 5598 5596 5594 5591 5589 5587 5585 5583 5582 5580 5578 5576 5577 5577 5577 5577 5577